Weather History for KW99 - October, 2012

Change the Weather History Date:

Sunday, October 14, 2012

  Actual Average (KEKN) Record (KEKN)
Temperature  
Mean Temperature 62 °F 52 °F  
Max Temperature 80 °F 65 °F 82 °F (1940)
Min Temperature 44 °F 39 °F 18 °F (1988)
Degree Days  
Heating Degree Days 3 13  
Month to date heating degree days 157  
Since 1 July heating degree days 317  
Cooling Degree Days 0 0  
Month to date cooling degree days 0  
Year to date cooling degree days 471  
Growing Degree Days 12 (Base 50)    
Moisture  
Dew Point 48 °F    
Average Humidity 59    
Maximum Humidity 89    
Minimum Humidity 37    
Precipitation  
Precipitation 0.00 in 0.09 in 1.14 in (1942)
Month to date precipitation 1.30  
Year to date precipitation 37.74  
Snow  
Snow 0.00 in - - ()
Month to date snowfall  
Since 1 September snowfall  
Snow Depth -    
Sea Level Pressure  
Sea Level Pressure 30.07 in    
Wind  
Wind Speed 4 mph (South)    
Max Wind Speed 15 mph    
Max Gust Speed 23 mph    
Visibility 10 miles    
Events      
T = Trace of Precipitation, MM = Missing Value Source: NWS Daily Summary

Daily Weather History Graph

Daily Weather History Graph

Search for Another Location

Airport or City:

Trip Planner

Search our weather history database for the weather conditions in past years. The results will help you decide how hot, cold, wet, or windy it might be!

Date:

Astronomy

Oct. 14, 2012 Rise Set
Actual Time 7:25 AM EDT 6:38 PM EDT
Civil Twilight 6:58 AM EDT 7:05 PM EDT
Nautical Twilight 6:27 AM EDT 7:36 PM EDT
Astronomical Twilight 5:56 AM EDT 8:07 PM EDT
Moon 6:22 AM EDT (10/14) 5:57 PM EDT (10/14)
Length of Visible Light 12h 06m
Length of Day
11h 13m
Waning Crescent, 1% of the Moon is Illuminated
Oct 14
Waning Crescent
Oct 15
New
Oct 21
First Quarter
Oct 29
Full
Nov 6
Last Quarter

Hourly Weather History & Observations

Time (EDT) Temp. Windchill Dew Point Humidity Pressure Visibility Wind Dir Wind Speed Gust Speed Precip Events Conditions
12:35 AM 46.6 °F - 39.7 °F 77% 30.21 in 10.0 mi Calm Calm - N/A   Clear
1:15 AM 55.9 °F - 41.2 °F 58% 30.20 in 10.0 mi SSE 5.8 mph - N/A   Scattered Clouds
1:35 AM 55.9 °F - 41.5 °F 58% 30.19 in 10.0 mi Calm Calm - N/A   Clear
1:55 AM 56.1 °F - 41.7 °F 58% 30.19 in 10.0 mi South 9.2 mph - N/A   Clear
2:15 AM 53.1 °F - 41.2 °F 64% 30.19 in 10.0 mi Calm Calm - N/A   Clear
2:35 AM 48.9 °F - 41.9 °F 77% 30.18 in 10.0 mi Calm Calm - N/A   Clear
2:55 AM 50.2 °F - 41.4 °F 72% 30.18 in 10.0 mi Calm Calm - N/A   Clear
3:15 AM 53.4 °F - 41.5 °F 64% 30.18 in 10.0 mi South 5.8 mph - N/A   Clear
3:35 AM 52.3 °F - 41.9 °F 68% 30.17 in 10.0 mi Calm Calm - N/A   Clear
3:55 AM 52.7 °F - 41.2 °F 65% 30.17 in 10.0 mi Calm Calm - N/A   Clear
4:15 AM 44.2 °F 41.8 °F 38.8 °F 81% 30.17 in 10.0 mi WNW 4.6 mph - N/A   Clear
4:35 AM 44.8 °F - 40.1 °F 84% 30.18 in 10.0 mi Calm Calm - N/A   Clear
4:55 AM 46.0 °F - 41.2 °F 83% 30.18 in 10.0 mi Calm Calm - N/A   Clear
5:15 AM 45.1 °F - 40.3 °F 83% 30.18 in 10.0 mi Calm Calm - N/A   Clear
5:35 AM 44.8 °F - 40.6 °F 85% 30.18 in 10.0 mi Calm Calm - N/A   Mostly Cloudy
5:55 AM 49.1 °F - 43.5 °F 81% 30.18 in 10.0 mi South 5.8 mph - N/A   Mostly Cloudy
6:15 AM 51.3 °F - 41.9 °F 70% 30.18 in 10.0 mi Calm Calm - N/A   Scattered Clouds
6:35 AM 50.9 °F - 42.4 °F 73% 30.18 in 10.0 mi Calm Calm - N/A   Clear
7:15 AM 46.6 °F - 42.3 °F 85% 30.18 in 10.0 mi Calm Calm - N/A   Clear
7:35 AM 45.5 °F - 41.9 °F 87% 30.19 in 10.0 mi Calm Calm - N/A   Clear
7:55 AM 45.9 °F - 42.4 °F 88% 30.19 in 10.0 mi Calm Calm - N/A   Scattered Clouds
8:15 AM 47.8 °F - 44.6 °F 89% 30.20 in 10.0 mi Calm Calm - N/A   Mostly Cloudy
8:35 AM 50.0 °F - 46.2 °F 87% 30.19 in 10.0 mi Calm Calm - N/A   Overcast
8:55 AM 52.9 °F - 46.6 °F 79% 30.19 in 10.0 mi Calm Calm - N/A   Mostly Cloudy
9:15 AM 54.7 °F - 46.9 °F 75% 30.19 in 10.0 mi Calm Calm - N/A   Mostly Cloudy
9:35 AM 59.5 °F - 46.8 °F 63% 30.18 in 10.0 mi Calm Calm - N/A   Scattered Clouds
9:55 AM 62.1 °F - 47.1 °F 58% 30.17 in 10.0 mi Calm Calm - N/A   Clear
10:15 AM 63.7 °F - 48.0 °F 57% 30.17 in 10.0 mi Calm Calm - N/A   Clear
10:35 AM 66.4 °F - 48.2 °F 52% 30.16 in 10.0 mi South 6.9 mph - N/A   Mostly Cloudy
10:55 AM 67.5 °F - 47.8 °F 49% 30.15 in 10.0 mi South 9.2 mph - N/A   Mostly Cloudy
11:15 AM 69.3 °F - 49.6 °F 50% 30.14 in 10.0 mi SSE 9.2 mph - N/A   Mostly Cloudy
11:35 AM 70.9 °F - 49.1 °F 46% 30.14 in 10.0 mi South 8.1 mph - N/A   Scattered Clouds
11:55 AM 72.0 °F - 50.0 °F 46% 30.12 in 10.0 mi SE 4.6 mph - N/A   Scattered Clouds
12:15 PM 73.9 °F - 50.4 °F 43% 30.11 in 10.0 mi SSW 8.1 mph - N/A   Clear
12:35 PM 74.8 °F - 51.1 °F 43% 30.10 in 10.0 mi SSE 4.6 mph - N/A   Clear
12:55 PM 76.6 °F - 51.4 °F 41% 30.08 in 10.0 mi Calm Calm - N/A   Scattered Clouds
1:15 PM 76.5 °F - 50.4 °F 40% 30.07 in 10.0 mi Calm Calm - N/A   Mostly Cloudy
1:35 PM 78.6 °F - 51.8 °F 39% 30.05 in 10.0 mi Calm Calm - N/A   Scattered Clouds
1:55 PM 80.2 °F - 51.8 °F 37% 30.03 in 10.0 mi Calm Calm - N/A   Clear
2:15 PM 79.7 °F - 52.9 °F 39% 30.02 in 10.0 mi SE 9.2 mph - N/A   Clear
2:35 PM 80.1 °F - 52.9 °F 39% 30.00 in 10.0 mi SE 11.5 mph - N/A   Clear
2:55 PM 78.6 °F - 52.5 °F 40% 29.99 in 10.0 mi SE 15.0 mph - N/A   Clear
3:15 PM 78.8 °F - 52.7 °F 40% 29.99 in 10.0 mi SE 9.2 mph - N/A   Clear
3:35 PM 77.7 °F - 52.7 °F 42% 29.98 in 10.0 mi SE 12.7 mph - N/A   Clear
3:55 PM 76.1 °F - 52.5 °F 44% 29.98 in 10.0 mi SE 13.8 mph 18.4 mph N/A   Clear
4:15 PM 74.8 °F - 52.3 °F 45% 29.97 in 10.0 mi ESE 11.5 mph 16.1 mph N/A   Clear
4:35 PM 74.5 °F - 52.5 °F 46% 29.96 in 10.0 mi ESE 12.7 mph - N/A   Clear
4:55 PM 74.5 °F - 53.6 °F 48% 29.96 in 10.0 mi SE 6.9 mph - N/A   Clear
5:15 PM 75.6 °F - 51.8 °F 43% 29.96 in 10.0 mi South 6.9 mph - N/A   Clear
5:35 PM 75.2 °F - 50.2 °F 41% 29.96 in 10.0 mi SSW 12.7 mph 19.6 mph N/A   Clear
5:55 PM 74.1 °F - 50.2 °F 43% 29.96 in 10.0 mi SSW 10.4 mph 23.0 mph N/A   Clear
6:15 PM 73.8 °F - 50.5 °F 44% 29.96 in 10.0 mi South 12.7 mph 19.6 mph N/A   Clear
6:35 PM 72.5 °F - 50.4 °F 46% 29.95 in 10.0 mi South 10.4 mph 17.3 mph N/A   Clear
6:55 PM 71.8 °F - 50.9 °F 48% 29.95 in 10.0 mi South 8.1 mph 17.3 mph N/A   Clear
7:15 PM 71.6 °F - 51.1 °F 48% 29.94 in 10.0 mi Calm Calm - N/A   Clear
7:35 PM 70.3 °F - 51.1 °F 50% 29.95 in 10.0 mi South 3.5 mph - N/A   Clear
7:55 PM 69.4 °F - 51.3 °F 52% 29.95 in 10.0 mi Calm Calm - N/A   Clear
8:15 PM 68.5 °F - 51.3 °F 54% 29.95 in 10.0 mi South 5.8 mph - N/A   Clear
8:35 PM 67.3 °F - 51.3 °F 56% 29.94 in 10.0 mi South 9.2 mph - N/A   Clear
8:55 PM 66.9 °F - 51.1 °F 57% 29.93 in 10.0 mi South 4.6 mph - N/A   Clear
9:15 PM 66.0 °F - 50.9 °F 58% 29.93 in 10.0 mi Calm Calm - N/A   Clear
9:35 PM 66.2 °F - 51.3 °F 59% 29.93 in 10.0 mi South 6.9 mph - N/A   Clear
9:55 PM 66.4 °F - 51.6 °F 59% 29.93 in 10.0 mi South 6.9 mph - N/A   Clear
10:15 PM 66.0 °F - 52.0 °F 60% 29.93 in 10.0 mi South 11.5 mph 16.1 mph N/A   Clear
10:35 PM 66.4 °F - 52.5 °F 61% 29.93 in 10.0 mi South 8.1 mph - N/A   Clear
10:55 PM 66.0 °F - 52.9 °F 63% 29.92 in 10.0 mi South 5.8 mph - N/A   Scattered Clouds
11:15 PM 66.2 °F - 53.4 °F 63% 29.92 in 10.0 mi South 6.9 mph - N/A   Scattered Clouds
11:35 PM 66.0 °F - 53.4 °F 64% 29.91 in 10.0 mi South 9.2 mph - N/A   Clear
11:55 PM 66.4 °F - 54.0 °F 64% 29.91 in 10.0 mi South 9.2 mph - N/A   Scattered Clouds